contact:dominique.lefevre@mio.osupytheas.fr, maurice.libes@osupytheas.fr, didier.mallarino@osupytheas.fr
Project:EMSO http://www.emso-fr.org/EMSO-France
Depth: 2436.0 m
Title:EMSO Ligure Ouest : Data MII capteur AQUADOPP
Date,Latitude,Longitude,X_East,Y_North,Z_Up,Amplitude_X,Amplitude_Y,Amplitude_Z,Batterie,SoundSpeed,Heading,Pitch,Roll,Pressure,TIS,Speed,Direction
, degrees North, degrees East, m.s-1, m.s-1,m.s-1, 1, 1, 1, Volt, m.s-1, degree, degree, degree, dbar, degree_C, m.s-1, degree
2023-08-23T00:04:03,42.805,6.029,-0.015,0.029,0.025,102.0,103.0,102.0,13.4,1505.2,339.1,-0.8,1.8,2471.567,13.29,0.032,332.6
2023-08-23T00:07:03,42.805,6.029,-0.013,0.024,-0.02,102.0,102.0,102.0,13.3,1505.2,342.6,-0.8,1.8,2471.533,13.29,0.027,331.6
2023-08-23T00:10:03,42.805,6.029,0.001,0.035,-0.016,103.0,103.0,102.0,13.3,1505.2,341.2,-0.8,1.8,2471.514,13.29,0.035,1.6
2023-08-23T00:13:03,42.805,6.029,-0.007,-0.011,-0.02,102.0,103.0,101.0,13.4,1505.2,341.2,-0.7,1.8,2471.507,13.29,0.013,212.5
2023-08-23T00:16:03,42.805,6.029,-0.001,0.003,-0.007,103.0,103.0,101.0,13.3,1505.2,327.7,-0.8,1.8,2471.491,13.29,0.003,341.6
2023-08-23T00:19:03,42.805,6.029,-0.007,0.032,-0.004,103.0,102.0,101.0,13.4,1505.2,330.8,-0.8,1.8,2471.521,13.29,0.032,347.7
2023-08-23T00:22:03,42.805,6.029,0.0,0.022,-0.006,102.0,103.0,102.0,13.3,1505.2,337.3,-0.7,1.8,2471.496,13.29,0.022,0.0
2023-08-23T00:25:03,42.805,6.029,0.01,0.018,0.002,103.0,103.0,101.0,13.4,1505.2,338.0,-0.7,1.8,2471.494,13.29,0.02,29.1
2023-08-23T00:28:03,42.805,6.029,-0.021,0.029,-0.002,103.0,103.0,101.0,13.4,1505.2,338.0,-0.8,1.8,2471.515,13.29,0.035,324.1
2023-08-23T00:31:03,42.805,6.029,-0.002,0.02,-0.006,104.0,103.0,101.0,13.3,1505.2,328.5,-0.8,1.8,2471.497,13.29,0.02,354.3
2023-08-23T00:34:03,42.805,6.029,0.009,0.011,-0.021,103.0,102.0,101.0,13.4,1505.2,345.0,-0.8,1.8,2471.46,13.29,0.014,39.3
2023-08-23T00:37:03,42.805,6.029,-0.032,0.017,-0.022,103.0,103.0,102.0,13.3,1505.2,341.2,-0.8,1.8,2471.495,13.29,0.036,298.0
2023-08-23T00:40:03,42.805,6.029,0.0,0.022,0.007,101.0,103.0,101.0,13.4,1505.2,331.3,-0.7,1.8,2471.456,13.29,0.022,0.0
2023-08-23T00:43:03,42.805,6.029,-0.005,0.004,-0.024,102.0,102.0,101.0,13.3,1505.2,331.2,-0.7,1.8,2471.494,13.29,0.006,308.7
2023-08-23T00:46:03,42.805,6.029,0.008,0.029,0.008,103.0,102.0,102.0,13.3,1505.2,347.8,-0.8,1.8,2471.461,13.29,0.03,15.4
2023-08-23T00:49:03,42.805,6.029,0.008,0.022,0.008,102.0,103.0,101.0,13.4,1505.2,350.1,-0.8,1.8,2471.455,13.29,0.023,20.0
2023-08-23T00:52:03,42.805,6.029,-0.013,0.019,0.023,103.0,102.0,101.0,13.4,1505.2,337.6,-0.8,1.8,2471.475,13.29,0.023,325.6
2023-08-23T00:55:03,42.805,6.029,0.021,0.019,0.009,103.0,103.0,101.0,13.4,1505.2,342.8,-0.8,1.8,2471.484,13.29,0.028,47.9
2023-08-23T00:58:03,42.805,6.029,0.019,0.022,0.004,102.0,102.0,101.0,13.4,1505.2,352.1,-0.8,1.8,2471.472,13.29,0.029,40.8
2023-08-23T01:04:03,42.805,6.029,0.007,0.008,0.002,105.0,104.0,103.0,13.3,1505.2,328.1,-0.8,1.8,2471.526,13.29,0.01,41.2
2023-08-23T01:07:03,42.805,6.029,0.03,0.015,-0.045,102.0,102.0,101.0,13.3,1505.2,329.5,-0.8,1.8,2471.534,13.29,0.033,63.4
2023-08-23T01:10:03,42.805,6.029,-0.019,0.015,-0.006,103.0,103.0,102.0,13.4,1505.2,321.4,-0.7,1.8,2471.493,13.29,0.024,308.3
2023-08-23T01:13:03,42.805,6.029,-0.014,0.019,-0.028,101.0,104.0,101.0,13.4,1505.2,344.9,-0.8,1.9,2471.493,13.29,0.023,323.6
2023-08-23T01:16:03,42.805,6.029,-0.004,0.02,0.021,104.0,101.0,102.0,13.3,1505.2,353.1,-0.7,1.8,2471.433,13.29,0.02,348.7
2023-08-23T01:19:03,42.805,6.029,0.012,-0.01,-0.047,104.0,102.0,101.0,13.3,1505.2,327.9,-0.8,1.8,2471.502,13.29,0.015,129.8
2023-08-23T01:22:03,42.805,6.029,-0.009,0.024,-0.001,102.0,103.0,102.0,13.4,1505.2,331.9,-0.8,1.8,2471.492,13.29,0.025,339.4
2023-08-23T01:25:03,42.805,6.029,-0.012,-0.014,-0.037,103.0,102.0,101.0,13.4,1505.2,328.8,-0.7,1.8,2471.47,13.29,0.018,220.6
2023-08-23T01:28:03,42.805,6.029,-0.001,0.019,0.008,103.0,103.0,101.0,13.4,1505.2,337.6,-0.8,1.8,2471.447,13.29,0.019,357.0
2023-08-23T01:31:03,42.805,6.029,-0.009,0.026,-0.016,101.0,104.0,102.0,13.4,1505.2,350.7,-0.8,1.8,2471.474,13.29,0.027,340.9
2023-08-23T01:34:03,42.805,6.029,-0.009,0.03,0.011,104.0,101.0,101.0,13.3,1505.2,321.1,-0.8,1.8,2471.44,13.29,0.031,343.3
2023-08-23T01:37:03,42.805,6.029,0.017,0.02,0.01,103.0,103.0,101.0,13.4,1505.2,333.8,-0.8,1.8,2471.461,13.29,0.026,40.4
2023-08-23T01:40:03,42.805,6.029,-0.012,0.012,-0.032,103.0,103.0,101.0,13.4,1505.2,353.1,-0.7,1.8,2471.502,13.29,0.016,315.0
2023-08-23T01:43:03,42.805,6.029,-0.023,0.022,-0.004,101.0,104.0,101.0,13.4,1505.2,324.5,-0.8,1.8,2471.426,13.29,0.031,313.7
2023-08-23T01:46:03,42.805,6.029,-0.023,0.016,-0.006,103.0,103.0,101.0,13.3,1505.2,331.1,-0.8,1.8,2471.443,13.29,0.028,304.8
2023-08-23T01:49:03,42.805,6.029,-0.012,0.015,-0.019,103.0,104.0,101.0,13.4,1505.2,339.3,-0.8,1.8,2471.426,13.29,0.019,321.3
2023-08-23T01:52:03,42.805,6.029,-0.011,0.018,-0.03,103.0,103.0,101.0,13.4,1505.2,329.7,-0.8,1.8,2471.442,13.29,0.021,328.6
2023-08-23T01:55:03,42.805,6.029,-0.005,0.016,0.004,103.0,103.0,101.0,13.4,1505.2,350.7,-0.7,1.8,2471.476,13.29,0.016,342.6
2023-08-23T01:58:03,42.805,6.029,-0.004,0.015,-0.019,102.0,103.0,101.0,13.3,1505.2,340.8,-0.8,1.8,2471.411,13.29,0.015,345.1
2023-08-23T02:04:03,42.805,6.029,-0.016,0.002,-0.012,103.0,103.0,101.0,13.4,1505.2,337.4,-0.7,1.8,2471.452,13.29,0.016,277.1
2023-08-23T02:07:03,42.805,6.029,-0.002,0.023,-0.02,103.0,102.0,101.0,13.4,1505.2,333.9,-0.8,1.8,2471.472,13.29,0.023,355.0
2023-08-23T02:10:03,42.805,6.029,0.006,0.005,-0.008,102.0,103.0,102.0,13.4,1505.2,350.9,-0.7,1.8,2471.469,13.29,0.007,50.2
2023-08-23T02:13:03,42.805,6.029,0.011,0.03,-0.015,103.0,103.0,101.0,13.3,1505.2,349.5,-0.8,1.8,2471.47,13.29,0.031,20.1
2023-08-23T02:16:03,42.805,6.029,-0.007,0.009,0.001,103.0,103.0,101.0,13.3,1505.2,346.2,-0.7,1.8,2471.461,13.29,0.011,322.1
2023-08-23T02:19:03,42.805,6.029,-0.007,0.012,0.017,103.0,104.0,101.0,13.3,1505.2,328.6,-0.8,1.8,2471.464,13.29,0.013,329.7
2023-08-23T02:22:03,42.805,6.029,-0.013,0.044,0.02,103.0,103.0,101.0,13.4,1505.2,333.4,-0.8,1.8,2471.461,13.29,0.045,343.5
2023-08-23T02:25:03,42.805,6.029,-0.007,0.015,-0.004,102.0,105.0,102.0,13.4,1505.2,337.2,-0.8,1.8,2471.451,13.29,0.016,335.0
2023-08-23T02:28:03,42.805,6.029,-0.015,-0.006,0.016,101.0,103.0,102.0,13.4,1505.2,342.9,-0.7,1.9,2471.414,13.29,0.016,248.2
2023-08-23T02:31:03,42.805,6.029,0.015,0.016,0.01,103.0,103.0,101.0,13.3,1505.2,333.8,-0.8,1.8,2471.382,13.29,0.021,43.1
2023-08-23T02:34:03,42.805,6.029,0.007,0.035,0.002,104.0,105.0,101.0,13.4,1505.2,337.5,-0.8,1.8,2471.407,13.29,0.035,11.3
2023-08-23T02:37:03,42.805,6.029,-0.003,0.016,-0.036,104.0,103.0,101.0,13.3,1505.2,347.9,-0.8,1.8,2471.377,13.29,0.016,349.4
2023-08-23T02:40:03,42.805,6.029,-0.008,0.015,-0.005,103.0,106.0,101.0,13.4,1505.2,337.5,-0.8,1.8,2471.448,13.29,0.017,331.9
2023-08-23T02:43:03,42.805,6.029,0.006,0.024,0.004,103.0,105.0,100.0,13.3,1505.2,330.3,-0.8,1.8,2471.414,13.29,0.024,14.0
2023-08-23T02:46:03,42.805,6.029,0.04,0.007,-0.002,103.0,104.0,101.0,13.3,1505.2,335.4,-0.8,1.8,2471.402,13.29,0.04,80.1
2023-08-23T02:49:03,42.805,6.029,-0.001,0.039,0.016,102.0,103.0,102.0,13.4,1505.2,321.9,-0.7,1.8,2471.408,13.29,0.039,358.5
2023-08-23T02:52:03,42.805,6.029,-0.006,0.026,0.005,105.0,103.0,101.0,13.3,1505.2,332.5,-0.7,1.8,2471.36,13.29,0.026,347.0
2023-08-23T02:55:03,42.805,6.029,0.028,-0.005,0.022,103.0,103.0,101.0,13.4,1505.2,350.1,-0.7,1.8,2471.399,13.29,0.028,100.1
2023-08-23T02:58:03,42.805,6.029,0.026,0.015,0.024,103.0,103.0,101.0,13.4,1505.2,332.1,-0.8,1.8,2471.442,13.29,0.03,60.0
2023-08-23T03:04:03,42.805,6.029,0.005,-0.012,-0.032,104.0,105.0,99.0,13.4,1505.2,351.5,-0.7,1.8,2471.441,13.29,0.013,157.4
2023-08-23T03:07:03,42.805,6.029,-0.004,0.03,-0.007,103.0,104.0,100.0,13.4,1505.2,326.3,-0.7,1.8,2471.494,13.29,0.03,352.4
2023-08-23T03:10:03,42.805,6.029,-0.006,0.033,-0.018,103.0,102.0,103.0,13.4,1505.2,336.0,-0.8,1.8,2471.43,13.29,0.033,349.7
2023-08-23T03:13:03,42.805,6.029,-0.011,0.0,-0.02,103.0,103.0,102.0,13.4,1505.2,329.0,-0.8,1.8,2471.447,13.29,0.011,270.0
2023-08-23T03:16:03,42.805,6.029,0.01,0.022,-0.016,102.0,103.0,101.0,13.4,1505.2,333.8,-0.7,1.8,2471.396,13.29,0.024,24.4
2023-08-23T03:19:03,42.805,6.029,0.019,0.016,-0.008,104.0,104.0,102.0,13.4,1505.2,344.5,-0.8,1.8,2471.421,13.29,0.024,49.9
2023-08-23T03:22:03,42.805,6.029,0.023,0.001,0.018,103.0,103.0,101.0,13.4,1505.2,330.6,-0.7,1.8,2471.406,13.29,0.023,87.5
2023-08-23T03:25:03,42.805,6.029,0.029,0.026,0.015,104.0,103.0,102.0,13.4,1505.2,353.4,-0.8,1.8,2471.384,13.29,0.038,48.1
2023-08-23T03:28:03,42.805,6.029,0.011,0.023,0.026,103.0,105.0,101.0,13.3,1505.2,321.0,-0.8,1.8,2471.371,13.29,0.025,25.6
2023-08-23T03:31:03,42.805,6.029,0.016,0.008,-0.006,103.0,103.0,102.0,13.4,1505.2,340.8,-0.8,1.8,2471.428,13.29,0.017,63.4
2023-08-23T03:34:03,42.805,6.029,0.0,0.007,-0.014,103.0,104.0,102.0,13.4,1505.2,329.9,-0.8,1.9,2471.364,13.29,0.007,0.0
2023-08-23T03:37:03,42.805,6.029,0.0,0.012,-0.018,103.0,103.0,101.0,13.4,1505.2,346.7,-0.8,1.8,2471.398,13.29,0.012,0.0
2023-08-23T03:40:03,42.805,6.029,0.005,0.015,0.012,104.0,103.0,101.0,13.3,1505.2,329.2,-0.8,1.8,2471.399,13.29,0.015,18.4
2023-08-23T03:43:03,42.805,6.029,0.009,0.014,-0.006,104.0,103.0,102.0,13.3,1505.2,331.6,-0.8,1.8,2471.394,13.29,0.016,32.7
2023-08-23T03:46:03,42.805,6.029,-0.007,0.014,-0.032,103.0,105.0,101.0,13.4,1505.2,349.1,-0.7,1.8,2471.394,13.29,0.015,333.4
2023-08-23T03:49:03,42.805,6.029,-0.005,0.0,0.015,103.0,104.0,102.0,13.4,1505.2,347.6,-0.7,1.8,2471.381,13.29,0.005,270.0
2023-08-23T03:52:03,42.805,6.029,-0.009,0.014,0.004,103.0,103.0,102.0,13.3,1505.2,342.3,-0.8,1.8,2471.395,13.29,0.016,327.3
2023-08-23T03:55:03,42.805,6.029,0.017,-0.002,0.012,104.0,102.0,101.0,13.4,1505.2,343.8,-0.7,1.8,2471.389,13.29,0.017,96.7
2023-08-23T03:58:03,42.805,6.029,0.019,-0.017,-0.067,103.0,104.0,101.0,13.3,1505.2,322.1,-0.8,1.8,2471.394,13.29,0.025,131.8
2023-08-23T04:04:03,42.805,6.029,0.018,0.017,0.018,103.0,104.0,102.0,13.4,1505.2,348.9,-0.8,1.8,2471.45,13.29,0.024,46.6
2023-08-23T04:07:03,42.805,6.029,0.006,0.023,0.01,104.0,104.0,101.0,13.4,1505.2,337.2,-0.7,1.8,2471.413,13.29,0.023,14.6
2023-08-23T04:10:03,42.805,6.029,0.015,0.007,0.007,104.0,104.0,102.0,13.4,1505.2,338.7,-0.8,1.8,2471.44,13.29,0.016,65.0
2023-08-23T04:13:03,42.805,6.029,0.015,-0.002,-0.021,103.0,104.0,102.0,13.4,1505.2,343.9,-0.8,1.8,2471.392,13.29,0.015,97.6
2023-08-23T04:16:03,42.805,6.029,-0.001,0.007,0.006,103.0,104.0,101.0,13.4,1505.2,329.4,-0.8,1.8,2471.394,13.29,0.007,351.9
2023-08-23T04:19:03,42.805,6.029,0.038,0.003,-0.013,103.0,105.0,102.0,13.4,1505.2,332.4,-0.8,1.8,2471.399,13.29,0.038,85.5
2023-08-23T04:22:03,42.805,6.029,0.015,0.011,0.019,104.0,103.0,102.0,13.4,1505.2,338.5,-0.8,1.8,2471.415,13.29,0.018,53.7
2023-08-23T04:25:03,42.805,6.029,0.022,-0.006,0.008,103.0,103.0,102.0,13.4,1505.2,344.6,-0.8,1.8,2471.438,13.29,0.022,105.3
2023-08-23T04:28:03,42.805,6.029,0.034,0.005,0.003,104.0,104.0,101.0,13.3,1505.2,342.9,-0.8,1.8,2471.394,13.29,0.034,81.6
2023-08-23T04:31:03,42.805,6.029,0.022,0.006,0.0,103.0,103.0,102.0,13.4,1505.2,353.1,-0.8,1.8,2471.407,13.29,0.022,74.7
2023-08-23T04:34:03,42.805,6.029,-0.009,0.038,-0.03,103.0,104.0,101.0,13.3,1505.2,327.8,-0.8,1.8,2471.421,13.29,0.039,346.7
2023-08-23T04:37:03,42.805,6.029,0.029,0.0,-0.018,104.0,103.0,101.0,13.4,1505.2,333.0,-0.7,1.8,2471.374,13.29,0.028,90.0
2023-08-23T04:40:03,42.805,6.029,0.005,0.017,0.001,102.0,103.0,102.0,13.4,1505.2,350.7,-0.8,1.8,2471.372,13.29,0.017,16.4
2023-08-23T04:43:03,42.805,6.029,-0.009,0.027,0.01,104.0,104.0,101.0,13.3,1505.2,324.7,-0.8,1.8,2471.345,13.29,0.028,341.6
2023-08-23T04:46:03,42.805,6.029,0.007,0.023,-0.037,104.0,102.0,102.0,13.4,1505.2,342.5,-0.7,1.8,2471.364,13.29,0.024,16.9
2023-08-23T04:49:03,42.805,6.029,0.018,0.0,0.001,104.0,103.0,102.0,13.3,1505.2,332.4,-0.7,1.8,2471.381,13.29,0.018,90.0
2023-08-23T04:52:03,42.805,6.029,0.008,-0.004,-0.021,104.0,104.0,101.0,13.4,1505.2,343.2,-0.8,1.8,2471.39,13.29,0.008,116.6
2023-08-23T04:55:03,42.805,6.029,0.038,0.001,-0.001,104.0,102.0,103.0,13.3,1505.2,343.0,-0.8,1.8,2471.387,13.29,0.038,88.5
2023-08-23T04:58:03,42.805,6.029,-0.001,0.003,-0.028,103.0,104.0,101.0,13.3,1505.2,353.0,-0.7,1.8,2471.389,13.29,0.003,341.6
2023-08-23T05:04:03,42.805,6.029,0.02,0.018,0.003,104.0,102.0,101.0,13.3,1505.2,341.9,-0.8,1.8,2471.42,13.29,0.026,48.0
2023-08-23T05:07:03,42.805,6.029,0.016,0.008,-0.013,102.0,104.0,102.0,13.3,1505.2,332.1,-0.7,1.8,2471.43,13.29,0.017,63.4
2023-08-23T05:10:03,42.805,6.029,0.022,-0.011,-0.015,104.0,104.0,101.0,13.4,1505.2,325.3,-0.8,1.8,2471.427,13.29,0.024,116.6
2023-08-23T05:13:03,42.805,6.029,-0.002,0.013,-0.026,104.0,102.0,101.0,13.4,1505.2,340.7,-0.8,1.8,2471.446,13.29,0.013,351.3
2023-08-23T05:16:03,42.805,6.029,0.004,0.002,-0.035,103.0,104.0,101.0,13.4,1505.2,340.0,-0.8,1.8,2471.392,13.29,0.004,63.4
2023-08-23T05:19:03,42.805,6.029,0.029,0.008,-0.006,104.0,104.0,101.0,13.4,1505.2,329.3,-0.7,1.8,2471.424,13.29,0.03,74.6
2023-08-23T05:22:03,42.805,6.029,-0.002,0.001,-0.057,102.0,103.0,102.0,13.3,1505.2,340.8,-0.8,1.8,2471.38,13.29,0.002,296.6
2023-08-23T05:25:03,42.805,6.029,0.012,0.005,-0.009,103.0,103.0,102.0,13.3,1505.2,347.4,-0.8,1.8,2471.369,13.29,0.013,67.4
2023-08-23T05:28:03,42.805,6.029,0.005,-0.003,-0.025,103.0,104.0,101.0,13.4,1505.2,331.3,-0.7,1.8,2471.396,13.29,0.005,121.0
2023-08-23T05:31:03,42.805,6.029,0.002,0.006,0.007,103.0,103.0,101.0,13.4,1505.2,343.2,-0.7,1.8,2471.382,13.29,0.006,18.4
2023-08-23T05:34:03,42.805,6.029,0.034,-0.006,-0.01,104.0,103.0,101.0,13.3,1505.2,332.4,-0.8,1.8,2471.369,13.29,0.034,100.0
2023-08-23T05:37:03,42.805,6.029,0.011,-0.005,-0.034,103.0,108.0,101.0,13.4,1505.2,339.1,-0.8,1.8,2471.365,13.29,0.012,114.4
2023-08-23T05:40:03,42.805,6.029,0.005,0.016,-0.02,104.0,103.0,101.0,13.4,1505.2,330.7,-0.8,1.8,2471.397,13.29,0.016,17.4
2023-08-23T05:43:03,42.805,6.029,-0.01,0.002,-0.01,103.0,103.0,101.0,13.4,1505.2,349.1,-0.7,1.8,2471.359,13.29,0.01,281.3
2023-08-23T05:46:03,42.805,6.029,0.013,-0.009,-0.042,103.0,103.0,101.0,13.3,1505.2,324.2,-0.8,1.8,2471.399,13.29,0.015,124.7
2023-08-23T05:49:03,42.805,6.029,0.02,0.016,-0.004,103.0,102.0,102.0,13.3,1505.2,342.2,-0.7,1.8,2471.348,13.29,0.025,51.3
2023-08-23T05:52:03,42.805,6.029,0.007,0.012,-0.005,103.0,104.0,101.0,13.4,1505.2,327.4,-0.8,1.8,2471.382,13.29,0.013,30.3
2023-08-23T05:55:03,42.805,6.029,0.005,0.012,0.015,103.0,104.0,101.0,13.4,1505.2,343.6,-0.8,1.8,2471.387,13.29,0.013,22.6
2023-08-23T05:58:03,42.805,6.029,0.008,-0.007,0.0,104.0,103.0,101.0,13.4,1505.2,343.3,-0.8,1.8,2471.386,13.29,0.01,131.2
2023-08-23T06:04:03,42.805,6.029,-0.007,0.015,0.007,103.0,103.0,101.0,13.4,1505.2,343.8,-0.8,1.8,2471.413,13.29,0.016,335.0
2023-08-23T06:07:03,42.805,6.029,0.013,0.009,-0.023,104.0,104.0,102.0,13.4,1505.2,322.7,-0.8,1.8,2471.404,13.29,0.015,55.3
2023-08-23T06:10:03,42.805,6.029,0.044,0.004,0.022,104.0,103.0,102.0,13.4,1505.2,332.9,-0.8,1.8,2471.386,13.29,0.044,84.8
2023-08-23T06:13:03,42.805,6.029,-0.002,0.01,-0.009,104.0,102.0,102.0,13.4,1505.2,352.8,-0.8,1.8,2471.391,13.29,0.01,348.7
2023-08-23T06:16:03,42.805,6.029,0.009,0.009,-0.021,103.0,104.0,101.0,13.3,1505.2,324.5,-0.7,1.8,2471.415,13.29,0.012,45.0
2023-08-23T06:19:03,42.805,6.029,-0.002,-0.004,-0.021,103.0,103.0,102.0,13.3,1505.2,342.1,-0.8,1.8,2471.399,13.29,0.004,206.6
2023-08-23T06:22:03,42.805,6.029,0.009,0.003,0.003,103.0,103.0,101.0,13.4,1505.2,324.7,-0.8,1.8,2471.385,13.29,0.009,71.6
2023-08-23T06:25:03,42.805,6.029,0.013,0.026,-0.015,103.0,104.0,101.0,13.3,1505.2,338.9,-0.8,1.8,2471.424,13.29,0.029,26.6
2023-08-23T06:28:03,42.805,6.029,-0.002,0.027,-0.029,103.0,103.0,102.0,13.3,1505.2,332.9,-0.8,1.8,2471.44,13.29,0.027,355.8
2023-08-23T06:31:03,42.805,6.029,0.008,0.012,-0.007,103.0,104.0,101.0,13.3,1505.2,329.2,-0.8,1.8,2471.377,13.29,0.014,33.7
2023-08-23T06:34:03,42.805,6.029,0.009,0.014,-0.03,104.0,104.0,101.0,13.4,1505.2,336.5,-0.8,1.8,2471.395,13.29,0.016,32.7
2023-08-23T06:37:03,42.805,6.029,0.017,0.005,-0.034,103.0,103.0,102.0,13.4,1505.2,344.6,-0.8,1.8,2471.388,13.29,0.017,73.6
2023-08-23T06:40:03,42.805,6.029,0.014,0.007,0.001,103.0,103.0,102.0,13.3,1505.2,330.2,-0.8,1.8,2471.413,13.29,0.015,63.4
2023-08-23T06:43:03,42.805,6.029,0.009,0.0,-0.027,104.0,104.0,101.0,13.4,1505.2,345.9,-0.7,1.8,2471.384,13.29,0.009,90.0
2023-08-23T06:46:03,42.805,6.029,0.018,-0.018,-0.029,102.0,103.0,102.0,13.4,1505.2,349.9,-0.7,1.8,2471.394,13.29,0.025,135.0
2023-08-23T06:49:03,42.805,6.029,0.023,-0.001,0.004,104.0,103.0,101.0,13.4,1505.2,336.3,-0.8,1.8,2471.405,13.29,0.023,92.5
2023-08-23T06:52:03,42.805,6.029,0.0,0.0,-0.023,103.0,103.0,101.0,13.3,1505.2,353.0,-0.8,1.8,2471.377,13.29,0.0,0.0
2023-08-23T06:55:03,42.805,6.029,0.023,-0.019,-0.031,102.0,103.0,102.0,13.4,1505.2,330.9,-0.8,1.8,2471.379,13.29,0.029,129.6
2023-08-23T06:58:03,42.805,6.029,-0.002,-0.006,-0.041,104.0,104.0,102.0,13.4,1505.2,342.3,-0.8,1.8,2471.382,13.29,0.006,198.4
2023-08-23T07:04:03,42.805,6.029,0.01,0.026,0.0,103.0,102.0,102.0,13.4,1505.2,339.0,-0.8,1.8,2471.42,13.29,0.027,21.0
2023-08-23T07:07:03,42.805,6.029,0.018,0.005,0.001,103.0,103.0,102.0,13.4,1505.2,325.0,-0.8,1.8,2471.391,13.29,0.018,74.5
2023-08-23T07:10:03,42.805,6.029,-0.022,0.009,-0.028,103.0,105.0,101.0,13.3,1505.2,331.3,-0.8,1.8,2471.434,13.29,0.023,292.2
2023-08-23T07:13:03,42.805,6.029,0.002,-0.007,-0.028,104.0,103.0,102.0,13.4,1505.2,325.5,-0.8,1.8,2471.421,13.29,0.007,164.1
2023-08-23T07:16:03,42.805,6.029,-0.001,-0.019,-0.041,104.0,103.0,101.0,13.4,1505.2,342.3,-0.8,1.9,2471.398,13.29,0.019,183.0
2023-08-23T07:19:03,42.805,6.029,0.0,0.015,0.003,104.0,105.0,101.0,13.3,1505.2,328.8,-0.7,1.8,2471.396,13.29,0.015,0.0
2023-08-23T07:22:03,42.805,6.029,0.006,0.0,-0.01,105.0,103.0,102.0,13.4,1505.2,346.2,-0.8,1.8,2471.4,13.29,0.006,90.0
2023-08-23T07:25:03,42.805,6.029,-0.002,-0.009,-0.044,103.0,103.0,102.0,13.3,1505.2,338.5,-0.7,1.8,2471.431,13.29,0.009,192.5
2023-08-23T07:28:03,42.805,6.029,0.014,0.0,0.003,102.0,103.0,101.0,13.4,1505.2,332.0,-0.8,1.8,2471.427,13.29,0.014,90.0
2023-08-23T07:31:03,42.805,6.029,0.004,-0.034,-0.048,103.0,104.0,101.0,13.4,1505.2,354.4,-0.8,1.8,2471.382,13.29,0.034,173.3
2023-08-23T07:34:03,42.805,6.029,0.013,0.017,-0.031,104.0,103.0,101.0,13.4,1505.2,320.9,-0.8,1.8,2471.423,13.29,0.021,37.4
2023-08-23T07:37:03,42.805,6.029,0.008,-0.004,-0.028,103.0,103.0,102.0,13.4,1505.2,345.1,-0.8,1.8,2471.383,13.29,0.008,116.6
2023-08-23T07:40:03,42.805,6.029,0.0,-0.007,-0.028,104.0,104.0,101.0,13.4,1505.2,326.8,-0.8,1.8,2471.408,13.29,0.007,180.0
2023-08-23T07:43:03,42.805,6.029,-0.008,0.0,-0.016,104.0,103.0,103.0,13.4,1505.2,337.0,-0.7,1.8,2471.436,13.29,0.008,270.0
2023-08-23T07:46:03,42.805,6.029,0.002,0.006,-0.007,103.0,103.0,102.0,13.4,1505.2,334.3,-0.8,1.8,2471.387,13.29,0.006,18.4
2023-08-23T07:49:03,42.805,6.029,-0.003,0.012,0.003,103.0,104.0,100.0,13.4,1505.2,345.9,-0.8,1.8,2471.408,13.29,0.012,346.0
2023-08-23T07:52:03,42.805,6.029,0.018,0.008,0.003,103.0,103.0,101.0,13.3,1505.2,338.6,-0.7,1.8,2471.398,13.29,0.019,66.0
2023-08-23T07:55:03,42.805,6.029,-0.032,0.024,-0.023,103.0,104.0,102.0,13.4,1505.2,334.4,-0.7,1.8,2471.393,13.29,0.04,306.9
2023-08-23T07:58:03,42.805,6.029,0.0,-0.001,-0.014,104.0,103.0,101.0,13.4,1505.2,345.9,-0.8,1.8,2471.409,13.29,0.001,180.0
2023-08-23T08:04:03,42.805,6.029,0.0,0.0,-0.028,103.0,102.0,101.0,13.3,1505.2,338.5,-0.8,1.8,2471.464,13.29,0.0,0.0
2023-08-23T08:07:03,42.805,6.029,-0.011,0.013,-0.01,103.0,101.0,103.0,13.3,1505.2,321.4,-0.8,1.8,2471.434,13.29,0.017,319.8
2023-08-23T08:10:03,42.805,6.029,-0.02,0.005,-0.009,103.0,102.0,102.0,13.4,1505.2,323.3,-0.8,1.8,2471.447,13.29,0.02,284.0
2023-08-23T08:13:03,42.805,6.029,0.01,0.011,-0.009,104.0,102.0,101.0,13.4,1505.2,329.8,-0.7,1.8,2471.444,13.29,0.014,42.3
2023-08-23T08:16:03,42.805,6.029,0.017,0.005,-0.032,105.0,103.0,103.0,13.3,1505.2,337.8,-0.8,1.8,2471.438,13.29,0.017,73.6
2023-08-23T08:19:03,42.805,6.029,-0.006,0.007,-0.003,104.0,104.0,101.0,13.4,1505.2,341.5,-0.8,1.8,2471.454,13.29,0.009,319.4
2023-08-23T08:22:03,42.805,6.029,-0.01,-0.009,-0.031,103.0,104.0,101.0,13.4,1505.2,347.7,-0.8,1.8,2471.476,13.29,0.013,228.0
2023-08-23T08:25:03,42.805,6.029,0.001,0.026,-0.026,103.0,102.0,101.0,13.3,1505.2,339.5,-0.7,1.8,2471.407,13.29,0.026,2.2
2023-08-23T08:28:03,42.805,6.029,-0.007,-0.004,-0.025,104.0,103.0,102.0,13.4,1505.2,345.0,-0.8,1.8,2471.423,13.29,0.008,240.3
2023-08-23T08:31:03,42.805,6.029,-0.009,0.027,-0.011,103.0,103.0,102.0,13.4,1505.2,343.4,-0.8,1.8,2471.416,13.29,0.028,341.6
2023-08-23T08:34:03,42.805,6.029,0.001,0.0,-0.021,104.0,104.0,101.0,13.4,1505.2,327.5,-0.8,1.8,2471.449,13.29,0.001,90.0
2023-08-23T08:37:03,42.805,6.029,-0.005,0.008,-0.036,103.0,107.0,102.0,13.3,1505.2,334.3,-0.7,1.8,2471.422,13.29,0.009,328.0
2023-08-23T08:40:03,42.805,6.029,0.006,0.002,-0.002,105.0,102.0,102.0,13.4,1505.2,331.9,-0.7,1.8,2471.467,13.3,0.006,71.6
2023-08-23T08:43:03,42.805,6.029,-0.009,0.018,-0.007,104.0,105.0,102.0,13.4,1505.2,347.4,-0.7,1.8,2471.44,13.3,0.02,333.4
2023-08-23T08:46:03,42.805,6.029,0.0,-0.008,-0.025,103.0,104.0,102.0,13.3,1505.2,333.8,-0.8,1.8,2471.432,13.3,0.008,180.0
2023-08-23T08:49:03,42.805,6.029,0.018,0.0,-0.023,104.0,104.0,101.0,13.4,1505.2,333.8,-0.8,1.9,2471.417,13.3,0.018,90.0
2023-08-23T08:52:03,42.805,6.029,-0.003,-0.007,-0.014,102.0,102.0,101.0,13.4,1505.2,351.7,-0.8,1.8,2471.438,13.3,0.007,203.2
2023-08-23T08:55:03,42.805,6.029,0.015,0.015,0.011,103.0,104.0,101.0,13.4,1505.2,349.5,-0.8,1.8,2471.501,13.3,0.021,45.0
2023-08-23T08:58:03,42.805,6.029,-0.01,0.0,-0.018,103.0,103.0,101.0,13.4,1505.2,342.5,-0.7,1.8,2471.446,13.3,0.01,270.0
2023-08-23T09:04:03,42.805,6.029,0.009,-0.016,0.006,104.0,103.0,102.0,13.4,1505.2,344.8,-0.8,1.8,2471.478,13.29,0.018,150.6
2023-08-23T09:07:03,42.805,6.029,0.001,0.002,-0.015,103.0,103.0,102.0,13.4,1505.2,336.8,-0.7,1.8,2471.492,13.29,0.002,26.6
2023-08-23T09:10:03,42.805,6.029,-0.004,0.004,-0.004,102.0,105.0,101.0,13.4,1505.2,337.6,-0.8,1.8,2471.477,13.3,0.005,315.0
2023-08-23T09:13:03,42.805,6.029,-0.015,0.019,-0.008,103.0,102.0,102.0,13.4,1505.2,347.0,-0.8,1.8,2471.477,13.3,0.024,321.7
2023-08-23T09:16:03,42.805,6.029,-0.014,-0.002,-0.026,103.0,104.0,104.0,13.4,1505.2,345.9,-0.8,1.8,2471.443,13.3,0.014,261.9
2023-08-23T09:19:03,42.805,6.029,-0.002,-0.004,0.003,103.0,104.0,102.0,13.4,1505.2,329.6,-0.8,1.8,2471.491,13.3,0.004,206.6
2023-08-23T09:22:03,42.805,6.029,0.0,0.009,0.015,104.0,103.0,101.0,13.3,1505.2,340.9,-0.7,1.8,2471.482,13.3,0.009,0.0
2023-08-23T09:25:03,42.805,6.029,0.002,-0.001,-0.007,109.0,103.0,101.0,13.3,1505.2,344.8,-0.8,1.8,2471.472,13.3,0.002,116.6
2023-08-23T09:28:03,42.805,6.029,-0.008,0.007,0.024,102.0,103.0,101.0,13.3,1505.2,333.9,-0.7,1.8,2471.448,13.3,0.01,311.2
2023-08-23T09:31:03,42.805,6.029,0.013,-0.013,-0.007,103.0,103.0,101.0,13.4,1505.2,331.4,-0.8,1.8,2471.476,13.3,0.018,135.0
2023-08-23T09:34:03,42.805,6.029,0.016,0.017,0.018,103.0,105.0,102.0,13.4,1505.2,345.9,-0.8,1.8,2471.488,13.3,0.023,43.3
2023-08-23T09:37:03,42.805,6.029,-0.006,-0.003,-0.058,103.0,103.0,102.0,13.4,1505.2,345.7,-0.8,1.8,2471.465,13.3,0.006,243.4
2023-08-23T09:40:03,42.805,6.029,0.014,-0.002,-0.019,106.0,102.0,101.0,13.4,1505.2,333.8,-0.8,1.8,2471.477,13.3,0.014,98.1
2023-08-23T09:43:03,42.805,6.029,0.008,0.011,-0.03,104.0,104.0,100.0,13.3,1505.2,336.9,-0.8,1.9,2471.482,13.3,0.013,36.0
2023-08-23T09:46:03,42.805,6.029,0.019,-0.018,0.0,104.0,104.0,101.0,13.4,1505.2,340.0,-0.8,1.8,2471.477,13.3,0.026,133.5
2023-08-23T09:49:03,42.805,6.029,-0.015,0.006,-0.035,106.0,101.0,102.0,13.3,1505.2,343.0,-0.7,1.8,2471.452,13.3,0.016,291.8
2023-08-23T09:52:03,42.805,6.029,0.014,0.003,0.0,103.0,103.0,101.0,13.4,1505.2,338.7,-0.8,1.8,2471.447,13.3,0.014,77.9
2023-08-23T09:55:03,42.805,6.029,0.002,0.001,-0.033,103.0,106.0,101.0,13.4,1505.2,327.8,-0.8,1.8,2471.454,13.3,0.002,63.4
2023-08-23T09:58:03,42.805,6.029,-0.017,0.007,-0.031,104.0,104.0,101.0,13.4,1505.2,339.3,-0.7,1.8,2471.496,13.3,0.018,292.4
2023-08-23T10:04:03,42.805,6.029,-0.001,-0.003,0.008,103.0,105.0,102.0,13.3,1505.2,350.7,-0.8,1.8,2471.528,13.3,0.003,198.4